Location: Dos Palmas
(32.4468°N, 116.8732°W)
Time: 00:38:45
(UTC+00:00)

Meteor 2-10 Rocket - Pass Details

Date: 20 June 2021
Orbit: 733 x 885 km, 81.2° (Epoch: 01 August)

Event Time Altitude Azimuth Distance (km) Brightness Sun altitude
Rises 06:26:21 0° 349° (NNW) 3,184 7.8 -30.7°
Reaches altitude 10° 06:28:43 10° 347° (NNW) 2,248 6.8 -30.9°
Enters shadow 06:32:23 48° 330° (NNW) 958 4.2 -31.2°
